Brad Parnham

Brad Parnham

Statistiques 2026

  • Courses courues : 187
  • Nb de victoires : 21
  • Nb de places : 71
  • Écart gagnant : 2
  • Réussite à la gagne : 11%
  • Réussite à la place : 38%
Musique : 8p 2p 1p 9p 6p 2p 6p 6p 10p 9p 10p 11p 1p 4p 3p 9p 1p 7p
DateRangCatégorieAlloc.Dist.HippodromeChevalPoidsSpé.
22/11/14 11 Galop 8 291€ Gb-Ascot Windswept 58,5 Steeple Chase
01/11/14 12 Galop 6 783€ Gb-Ascot God Has Spoken 59 Haies
22/11/14 7 Galop 15 074€ Gb-Ascot Dancing Express 54,5 Haies
20/07/22 8 Galop 16 447€ AUS-BELMONT Le Grand Risque 60 Plat
02/07/22 7 Galop 53 691€ AUS-BELMONT Truly Awesome 54 Plat
02/07/22 4 Galop 26 845€ AUS-BELMONT Free Solo 57 Plat
02/07/22 4 Galop 53 691€ AUS-BELMONT Seduce Me 58 Plat
02/07/22 5 Galop 83 892€ AUS-BELMONT Tizzle Top 55,5 Plat
02/07/22 5 Galop 83 892€ AUS-BELMONT Cartanera 55,5 Plat
02/07/22 1 Galop 53 691€ AUS-BELMONT Last Of The Line 62 Plat
02/07/22 9 Galop 53 691€ AUS-BELMONT Agent Jay 54 Plat
02/07/22 1 Galop 40 268€ AUS-BELMONT Thomas Magnum 55 Plat
13/07/22 4 Galop 19 736€ AUS-BELMONT Rommel's Jeuney 58 Plat
13/07/22 7 Galop 16 447€ AUS-BELMONT Bayzel 57,5 Plat
13/07/22 1 Galop 16 447€ AUS-BELMONT Bread To Flirt 58 Plat
13/07/22 5 Galop 16 447€ AUS-BELMONT Look Up 60 Plat
13/07/22 3 Galop 19 736€ AUS-BELMONT Kohli 58 Plat
13/07/22 8 Galop 16 447€ AUS-BELMONT Free Solo 59 Plat
13/07/22 6 Galop 16 447€ AUS-BELMONT Zoudini 56,5 Plat
14/07/22 2 Galop 13 157€ AUS-NORTHAM Steak Night 56 Plat
14/07/22 3 Galop 13 157€ AUS-NORTHAM Haydross 57 Plat
14/07/22 4 Galop 13 157€ AUS-NORTHAM Viccy Has Spoken 56 Plat
14/07/22 9 Galop 13 157€ AUS-NORTHAM Mercurius 58 Plat
14/07/22 11 Galop 13 157€ AUS-NORTHAM Stylish Pip 56 Plat
14/07/22 4 Galop 16 447€ AUS-NORTHAM Beanie 59 Plat
16/07/22 3 Galop 52 631€ AUS-BELMONT Diamond Command 55 Plat
16/07/22 2 Galop 52 631€ AUS-BELMONT No Apology 57 Plat
16/07/22 3 Galop 82 236€ AUS-BELMONT Tizzle Top 56,5 Plat
16/07/22 5 Galop 52 631€ AUS-BELMONT Reliable Star 55 Plat
16/07/22 5 Galop 52 631€ AUS-BELMONT Thomas Magnum 56,5 Plat
16/07/22 7 Galop 52 631€ AUS-BELMONT Ruuca 58 Plat
16/07/22 9 Galop 52 631€ AUS-BELMONT Creator 57 Plat
20/07/22 8 Galop 19 736€ AUS-BELMONT No Plastic 57 Plat
20/07/22 2 Galop 19 736€ AUS-BELMONT Desert Vixen 57,5 Plat
27/07/22 4 Galop 85 034€ AUS-BELMONT Western Temple 55,5 Plat
04/08/22 10 Galop 15 306€ AUS-PINJARRA PARK Living High 56 Plat
04/08/22 6 Galop 15 306€ AUS-PINJARRA PARK Star In Time 56 Plat
30/07/22 6 Galop 54 421€ AUS-BELMONT Go Forward 58 Plat
30/07/22 2 Galop 40 816€ AUS-BELMONT Thomas Magnum 57 Plat
30/07/22 6 Galop 54 421€ AUS-BELMONT Ruuca 55 Plat
30/07/22 2 Galop 40 816€ AUS-BELMONT Alimentaria 56,5 Plat
28/07/22 7 Galop 17 006€ AUS-NORTHAM Free Solo 58 Plat
28/07/22 10 Galop 17 006€ AUS-NORTHAM Doowahdiddy 56,5 Plat
28/07/22 7 Galop 17 006€ AUS-NORTHAM Bayzel 57 Plat
28/07/22 8 Galop 13 605€ AUS-NORTHAM Talking Heads 58 Plat
28/07/22 11 Galop 13 605€ AUS-NORTHAM Mercurius 58 Plat
28/07/22 3 Galop 13 605€ AUS-NORTHAM Haydross 58 Plat
28/07/22 1 Galop 13 605€ AUS-NORTHAM Steak Night 56 Plat
27/07/22 1 Galop 54 421€ AUS-BELMONT Mercanto 59 Plat
21/07/22 9 Galop 13 157€ AUS-PINJARRA PARK Living High 56 Plat